Torna al catalogo

STARLINK-5878

AttivoComunicazioniVLEO
NORAD 55955·PAYLOAD·🇺🇸 United States

Lanciato Mar 17, 2023 da Vandenberg Space Force Base

Loading…

Prossimi Passaggi (prossime 24 ore)

TLE

AggiornatoSource: CelesTrak SupGP

Epoca: Sep 15, 2026, 01:38 UTC

1 55955C 23037AT  26258.06854167  .00029795  00000+0  24971-2 0  2588
2 55955  70.0010 147.0052 0002822 272.0075 294.3684 14.98312454    13

Traccia STARLINK-5878 in tempo reale con AllMySat

Download on the App Store